contact:dominique.lefevre@mio.osupytheas.fr, maurice.libes@osupytheas.fr, didier.mallarino@osupytheas.fr
Project:EMSO http://www.emso-fr.org/EMSO-France
Depth: 2436.0 m
Title:EMSO Ligure Ouest : Data MII capteur MICROCAT
DateTime_Computer,Latitude,Longitude,Temperature,Conductivity,Pressure,DateTime_Instrument
DateTime_Computer,Latitude,Longitude,degC,S m-1,dbar,DateTime_Instrument
2022-06-28T00:00:28Z,42.805,6.029,13.3007,4.60053,2470.646,2022-6-28T02:02:12Z
2022-06-28T00:03:31Z,42.805,6.029,13.3008,4.60049,2470.661,2022-6-28T02:05:16Z
2022-06-28T00:06:34Z,42.805,6.029,13.3009,4.60042,2470.624,2022-6-28T02:08:19Z
2022-06-28T00:09:37Z,42.805,6.029,13.3001,4.60044,2470.624,2022-6-28T02:11:22Z
2022-06-28T00:12:40Z,42.805,6.029,13.3007,4.60042,2470.6,2022-6-28T02:14:25Z
2022-06-28T00:15:43Z,42.805,6.029,13.3006,4.60043,2470.614,2022-6-28T02:17:28Z
2022-06-28T00:18:46Z,42.805,6.029,13.3003,4.60041,2470.646,2022-6-28T02:20:31Z
2022-06-28T00:21:50Z,42.805,6.029,13.3006,4.60047,2470.646,2022-6-28T02:23:34Z
2022-06-28T00:24:53Z,42.805,6.029,13.3007,4.60040,2470.6,2022-6-28T02:26:37Z
2022-06-28T00:27:56Z,42.805,6.029,13.3004,4.60044,2470.6,2022-6-28T02:29:40Z
2022-06-28T00:30:59Z,42.805,6.029,13.3008,4.60040,2470.6,2022-6-28T02:32:44Z
2022-06-28T00:34:02Z,42.805,6.029,13.3002,4.60045,2470.614,2022-6-28T02:35:47Z
2022-06-28T00:37:05Z,42.805,6.029,13.3009,4.60043,2470.577,2022-6-28T02:38:50Z
2022-06-28T00:40:08Z,42.805,6.029,13.3006,4.60044,2470.6,2022-6-28T02:41:53Z
2022-06-28T00:43:11Z,42.805,6.029,13.3011,4.60039,2470.637,2022-6-28T02:44:56Z
2022-06-28T00:46:15Z,42.805,6.029,13.3005,4.60038,2470.637,2022-6-28T02:47:59Z
2022-06-28T00:49:18Z,42.805,6.029,13.3005,4.60044,2470.624,2022-6-28T02:51:02Z
2022-06-28T00:52:21Z,42.805,6.029,13.3006,4.60046,2470.6,2022-6-28T02:54:05Z
2022-06-28T00:55:24Z,42.805,6.029,13.3009,4.60041,2470.6,2022-6-28T02:57:09Z
2022-06-28T00:58:27Z,42.805,6.029,13.3004,4.60041,2470.6,2022-6-28T03:00:12Z
2022-06-28T01:01:30Z,42.805,6.029,13.3007,4.60045,2470.6,2022-6-28T03:03:15Z
2022-06-28T01:04:33Z,42.805,6.029,13.3009,4.60042,2470.614,2022-6-28T03:06:18Z
2022-06-28T01:07:36Z,42.805,6.029,13.3006,4.60042,2470.6,2022-6-28T03:09:21Z
2022-06-28T01:10:40Z,42.805,6.029,13.3003,4.60042,2470.614,2022-6-28T03:12:24Z
2022-06-28T01:13:43Z,42.805,6.029,13.3010,4.60046,2470.6,2022-6-28T03:15:27Z
2022-06-28T01:16:46Z,42.805,6.029,13.3004,4.60046,2470.591,2022-6-28T03:18:30Z
2022-06-28T01:19:49Z,42.805,6.029,13.3008,4.60043,2470.637,2022-6-28T03:21:34Z
2022-06-28T01:22:52Z,42.805,6.029,13.3007,4.60041,2470.6,2022-6-28T03:24:37Z
2022-06-28T01:25:55Z,42.805,6.029,13.3004,4.60051,2470.646,2022-6-28T03:27:40Z
2022-06-28T01:28:58Z,42.805,6.029,13.3009,4.60041,2470.567,2022-6-28T03:30:43Z
2022-06-28T01:32:01Z,42.805,6.029,13.3008,4.60047,2470.624,2022-6-28T03:33:46Z
2022-06-28T01:35:05Z,42.805,6.029,13.3009,4.60040,2470.591,2022-6-28T03:36:49Z
2022-06-28T01:38:08Z,42.805,6.029,13.3006,4.60052,2470.591,2022-6-28T03:39:52Z
2022-06-28T01:41:11Z,42.805,6.029,13.3009,4.60043,2470.577,2022-6-28T03:42:55Z
2022-06-28T01:44:14Z,42.805,6.029,13.3011,4.60042,2470.6,2022-6-28T03:45:59Z
2022-06-28T01:47:17Z,42.805,6.029,13.3008,4.60049,2470.6,2022-6-28T03:49:02Z
2022-06-28T01:50:20Z,42.805,6.029,13.3004,4.60040,2470.624,2022-6-28T03:52:05Z
2022-06-28T01:53:23Z,42.805,6.029,13.3004,4.60044,2470.6,2022-6-28T03:55:08Z
2022-06-28T01:56:26Z,42.805,6.029,13.3009,4.60044,2470.614,2022-6-28T03:58:11Z
2022-06-28T01:59:30Z,42.805,6.029,13.3008,4.60043,2470.637,2022-6-28T04:01:14Z
2022-06-28T02:02:33Z,42.805,6.029,13.3006,4.60042,2470.614,2022-6-28T04:04:17Z
2022-06-28T02:05:36Z,42.805,6.029,13.3009,4.60044,2470.6,2022-6-28T04:07:20Z
2022-06-28T02:08:39Z,42.805,6.029,13.3009,4.60043,2470.6,2022-6-28T04:10:24Z
2022-06-28T02:11:42Z,42.805,6.029,13.3009,4.60040,2470.6,2022-6-28T04:13:27Z
2022-06-28T02:14:45Z,42.805,6.029,13.3006,4.60041,2470.614,2022-6-28T04:16:30Z
2022-06-28T02:17:48Z,42.805,6.029,13.3005,4.60040,2470.577,2022-6-28T04:19:33Z
2022-06-28T02:20:51Z,42.805,6.029,13.3009,4.60041,2470.637,2022-6-28T04:22:36Z
2022-06-28T02:23:54Z,42.805,6.029,13.3005,4.60042,2470.6,2022-6-28T04:25:39Z
2022-06-28T02:26:58Z,42.805,6.029,13.3004,4.60040,2470.614,2022-6-28T04:28:42Z
2022-06-28T02:30:01Z,42.805,6.029,13.3006,4.60042,2470.591,2022-6-28T04:31:45Z
2022-06-28T02:33:04Z,42.805,6.029,13.3009,4.60040,2470.6,2022-6-28T04:34:48Z
2022-06-28T02:36:07Z,42.805,6.029,13.3004,4.60042,2470.6,2022-6-28T04:37:52Z
2022-06-28T02:39:10Z,42.805,6.029,13.3008,4.60045,2470.6,2022-6-28T04:40:55Z
2022-06-28T02:42:13Z,42.805,6.029,13.3008,4.60043,2470.646,2022-6-28T04:43:58Z
2022-06-28T02:45:16Z,42.805,6.029,13.3004,4.60042,2470.577,2022-6-28T04:47:01Z
2022-06-28T02:48:19Z,42.805,6.029,13.3005,4.60044,2470.6,2022-6-28T04:50:04Z
2022-06-28T02:51:23Z,42.805,6.029,13.3006,4.60039,2470.6,2022-6-28T04:53:07Z
2022-06-28T02:54:26Z,42.805,6.029,13.2999,4.60049,2470.6,2022-6-28T04:56:10Z
2022-06-28T02:57:29Z,42.805,6.029,13.3005,4.60041,2470.577,2022-6-28T04:59:13Z
2022-06-28T03:00:32Z,42.805,6.029,13.3005,4.60042,2470.624,2022-6-28T05:02:17Z
2022-06-28T03:03:35Z,42.805,6.029,13.3009,4.60045,2470.624,2022-6-28T05:05:20Z
2022-06-28T03:06:38Z,42.805,6.029,13.3006,4.60044,2470.6,2022-6-28T05:08:23Z
2022-06-28T03:09:41Z,42.805,6.029,13.3009,4.60041,2470.624,2022-6-28T05:11:26Z
2022-06-28T03:12:44Z,42.805,6.029,13.3006,4.60045,2470.637,2022-6-28T05:14:29Z
2022-06-28T03:15:48Z,42.805,6.029,13.3011,4.60044,2470.6,2022-6-28T05:17:32Z
2022-06-28T03:18:51Z,42.805,6.029,13.3007,4.60042,2470.637,2022-6-28T05:20:35Z
2022-06-28T03:21:54Z,42.805,6.029,13.3002,4.60042,2470.6,2022-6-28T05:23:38Z
2022-06-28T03:24:57Z,42.805,6.029,13.3001,4.60046,2470.614,2022-6-28T05:26:42Z
2022-06-28T03:28:00Z,42.805,6.029,13.3003,4.60041,2470.637,2022-6-28T05:29:45Z
2022-06-28T03:31:03Z,42.805,6.029,13.3006,4.60042,2470.6,2022-6-28T05:32:48Z
2022-06-28T03:34:06Z,42.805,6.029,13.3006,4.60040,2470.624,2022-6-28T05:35:51Z
2022-06-28T03:37:09Z,42.805,6.029,13.3005,4.60041,2470.6,2022-6-28T05:38:54Z
2022-06-28T03:40:13Z,42.805,6.029,13.3008,4.60042,2470.614,2022-6-28T05:41:57Z
2022-06-28T03:43:16Z,42.805,6.029,13.3004,4.60043,2470.637,2022-6-28T05:45:00Z
2022-06-28T03:46:19Z,42.805,6.029,13.3005,4.60042,2470.684,2022-6-28T05:48:03Z
2022-06-28T03:49:22Z,42.805,6.029,13.3009,4.60041,2470.684,2022-6-28T05:51:07Z
2022-06-28T03:52:25Z,42.805,6.029,13.3006,4.60041,2470.624,2022-6-28T05:54:10Z
2022-06-28T03:55:28Z,42.805,6.029,13.3007,4.60048,2470.624,2022-6-28T05:57:13Z
2022-06-28T03:58:31Z,42.805,6.029,13.3009,4.60042,2470.624,2022-6-28T06:00:16Z
2022-06-28T04:01:34Z,42.805,6.029,13.3006,4.60043,2470.633,2022-6-28T06:03:19Z
2022-06-28T04:04:37Z,42.805,6.029,13.3006,4.60043,2470.624,2022-6-28T06:06:22Z
2022-06-28T04:07:41Z,42.805,6.029,13.3007,4.60045,2470.637,2022-6-28T06:09:25Z
2022-06-28T04:10:44Z,42.805,6.029,13.3007,4.60043,2470.624,2022-6-28T06:12:28Z
2022-06-28T04:13:47Z,42.805,6.029,13.3008,4.60039,2470.67,2022-6-28T06:15:31Z
2022-06-28T04:16:50Z,42.805,6.029,13.3008,4.60039,2470.646,2022-6-28T06:18:35Z
2022-06-28T04:19:53Z,42.805,6.029,13.3007,4.60039,2470.661,2022-6-28T06:21:38Z
2022-06-28T04:22:56Z,42.805,6.029,13.3009,4.60043,2470.624,2022-6-28T06:24:41Z
2022-06-28T04:25:59Z,42.805,6.029,13.3005,4.60044,2470.661,2022-6-28T06:27:44Z
2022-06-28T04:29:02Z,42.805,6.029,13.3006,4.60043,2470.661,2022-6-28T06:30:47Z
2022-06-28T04:32:06Z,42.805,6.029,13.3008,4.60044,2470.684,2022-6-28T06:33:50Z
2022-06-28T04:35:09Z,42.805,6.029,13.3007,4.60042,2470.661,2022-6-28T06:36:53Z
2022-06-28T04:38:12Z,42.805,6.029,13.3004,4.60040,2470.684,2022-6-28T06:39:56Z
2022-06-28T04:41:15Z,42.805,6.029,13.3008,4.60042,2470.646,2022-6-28T06:43:00Z
2022-06-28T04:44:18Z,42.805,6.029,13.3006,4.60043,2470.646,2022-6-28T06:46:03Z
2022-06-28T04:47:21Z,42.805,6.029,13.3004,4.60042,2470.67,2022-6-28T06:49:06Z
2022-06-28T04:50:24Z,42.805,6.029,13.3005,4.60042,2470.684,2022-6-28T06:52:09Z
2022-06-28T04:53:27Z,42.805,6.029,13.3006,4.60045,2470.646,2022-6-28T06:55:12Z
2022-06-28T04:56:31Z,42.805,6.029,13.3008,4.60042,2470.646,2022-6-28T06:58:15Z
2022-06-28T04:59:34Z,42.805,6.029,13.3006,4.60042,2470.693,2022-6-28T07:01:18Z
2022-06-28T05:02:37Z,42.805,6.029,13.3006,4.60043,2470.693,2022-6-28T07:04:21Z
2022-06-28T05:05:40Z,42.805,6.029,13.3009,4.60039,2470.67,2022-6-28T07:07:25Z
2022-06-28T05:08:43Z,42.805,6.029,13.3004,4.60046,2470.684,2022-6-28T07:10:28Z
2022-06-28T05:11:46Z,42.805,6.029,13.3008,4.60046,2470.67,2022-6-28T07:13:31Z
2022-06-28T05:14:49Z,42.805,6.029,13.3009,4.60046,2470.679,2022-6-28T07:16:34Z
2022-06-28T05:17:52Z,42.805,6.029,13.3011,4.60042,2470.693,2022-6-28T07:19:37Z
2022-06-28T05:20:56Z,42.805,6.029,13.3008,4.60042,2470.684,2022-6-28T07:22:40Z
2022-06-28T05:23:59Z,42.805,6.029,13.3006,4.60039,2470.67,2022-6-28T07:25:43Z
2022-06-28T05:27:02Z,42.805,6.029,13.3006,4.60043,2470.693,2022-6-28T07:28:46Z
2022-06-28T05:30:05Z,42.805,6.029,13.3009,4.60046,2470.693,2022-6-28T07:31:50Z
2022-06-28T05:33:08Z,42.805,6.029,13.3009,4.60044,2470.67,2022-6-28T07:34:53Z
2022-06-28T05:36:11Z,42.805,6.029,13.3006,4.60039,2470.693,2022-6-28T07:37:56Z
2022-06-28T05:39:14Z,42.805,6.029,13.3009,4.60039,2470.707,2022-6-28T07:40:59Z
2022-06-28T05:42:17Z,42.805,6.029,13.3009,4.60040,2470.67,2022-6-28T07:44:02Z
2022-06-28T05:45:20Z,42.805,6.029,13.3001,4.60040,2470.67,2022-6-28T07:47:05Z
2022-06-28T05:48:24Z,42.805,6.029,13.3010,4.60044,2470.693,2022-6-28T07:50:08Z
2022-06-28T05:51:27Z,42.805,6.029,13.3004,4.60040,2470.684,2022-6-28T07:53:11Z
2022-06-28T05:54:30Z,42.805,6.029,13.3009,4.60042,2470.703,2022-6-28T07:56:14Z
2022-06-28T05:57:33Z,42.805,6.029,13.3009,4.60047,2470.693,2022-6-28T07:59:18Z
2022-06-28T06:00:36Z,42.805,6.029,13.3006,4.60049,2470.707,2022-6-28T08:02:21Z
2022-06-28T06:03:39Z,42.805,6.029,13.3004,4.60044,2470.684,2022-6-28T08:05:24Z
2022-06-28T06:06:42Z,42.805,6.029,13.3006,4.60041,2470.679,2022-6-28T08:08:27Z
2022-06-28T06:09:45Z,42.805,6.029,13.3006,4.60041,2470.67,2022-6-28T08:11:30Z
2022-06-28T06:12:49Z,42.805,6.029,13.3009,4.60041,2470.707,2022-6-28T08:14:33Z
2022-06-28T06:15:52Z,42.805,6.029,13.3005,4.60041,2470.646,2022-6-28T08:17:36Z
2022-06-28T06:18:55Z,42.805,6.029,13.3007,4.60044,2470.67,2022-6-28T08:20:39Z
2022-06-28T06:21:58Z,42.805,6.029,13.3008,4.60046,2470.67,2022-6-28T08:23:43Z
2022-06-28T06:25:01Z,42.805,6.029,13.3004,4.60044,2470.67,2022-6-28T08:26:46Z
2022-06-28T06:28:04Z,42.805,6.029,13.3008,4.60039,2470.67,2022-6-28T08:29:49Z
2022-06-28T06:31:07Z,42.805,6.029,13.3006,4.60040,2470.684,2022-6-28T08:32:52Z
2022-06-28T06:34:10Z,42.805,6.029,13.3007,4.60042,2470.693,2022-6-28T08:35:55Z
2022-06-28T06:37:14Z,42.805,6.029,13.3006,4.60045,2470.707,2022-6-28T08:38:58Z
2022-06-28T06:40:17Z,42.805,6.029,13.3005,4.60044,2470.661,2022-6-28T08:42:01Z
2022-06-28T06:43:20Z,42.805,6.029,13.3006,4.60044,2470.707,2022-6-28T08:45:04Z
2022-06-28T06:46:23Z,42.805,6.029,13.3005,4.60041,2470.67,2022-6-28T08:48:08Z
2022-06-28T06:49:26Z,42.805,6.029,13.3003,4.60040,2470.67,2022-6-28T08:51:11Z
2022-06-28T06:52:29Z,42.805,6.029,13.3006,4.60044,2470.684,2022-6-28T08:54:14Z
2022-06-28T06:55:32Z,42.805,6.029,13.3006,4.60047,2470.646,2022-6-28T08:57:17Z
2022-06-28T06:58:35Z,42.805,6.029,13.3007,4.60046,2470.684,2022-6-28T09:00:20Z
2022-06-28T07:01:38Z,42.805,6.029,13.3010,4.60042,2470.646,2022-6-28T09:03:23Z
2022-06-28T07:04:42Z,42.805,6.029,13.3006,4.60043,2470.646,2022-6-28T09:06:26Z
2022-06-28T07:07:45Z,42.805,6.029,13.3007,4.60045,2470.707,2022-6-28T09:09:29Z
2022-06-28T07:10:48Z,42.805,6.029,13.3005,4.60042,2470.717,2022-6-28T09:12:32Z
2022-06-28T07:13:51Z,42.805,6.029,13.3007,4.60039,2470.684,2022-6-28T09:15:36Z
2022-06-28T07:16:54Z,42.805,6.029,13.3003,4.60047,2470.67,2022-6-28T09:18:39Z
2022-06-28T07:19:57Z,42.805,6.029,13.3003,4.60038,2470.684,2022-6-28T09:21:42Z
2022-06-28T07:23:00Z,42.805,6.029,13.3005,4.60038,2470.661,2022-6-28T09:24:45Z
2022-06-28T07:26:03Z,42.805,6.029,13.3005,4.60042,2470.67,2022-6-28T09:27:48Z
2022-06-28T07:29:07Z,42.805,6.029,13.3005,4.60041,2470.684,2022-6-28T09:30:51Z
2022-06-28T07:32:10Z,42.805,6.029,13.3011,4.60039,2470.637,2022-6-28T09:33:54Z
2022-06-28T07:35:13Z,42.805,6.029,13.3006,4.60040,2470.707,2022-6-28T09:36:57Z
2022-06-28T07:38:16Z,42.805,6.029,13.3006,4.60042,2470.646,2022-6-28T09:40:01Z
2022-06-28T07:41:19Z,42.805,6.029,13.3004,4.60044,2470.637,2022-6-28T09:43:04Z
2022-06-28T07:44:22Z,42.805,6.029,13.3006,4.60042,2470.656,2022-6-28T09:46:07Z
2022-06-28T07:47:25Z,42.805,6.029,13.3007,4.60039,2470.684,2022-6-28T09:49:10Z
2022-06-28T07:50:28Z,42.805,6.029,13.3009,4.60039,2470.646,2022-6-28T09:52:13Z
2022-06-28T07:53:32Z,42.805,6.029,13.3006,4.60039,2470.661,2022-6-28T09:55:16Z
2022-06-28T07:56:35Z,42.805,6.029,13.3006,4.60042,2470.646,2022-6-28T09:58:19Z
2022-06-28T07:59:38Z,42.805,6.029,13.3005,4.60042,2470.646,2022-6-28T10:01:22Z
2022-06-28T08:02:41Z,42.805,6.029,13.3004,4.60039,2470.614,2022-6-28T10:04:26Z
2022-06-28T08:05:44Z,42.805,6.029,13.3004,4.60039,2470.646,2022-6-28T10:07:29Z
2022-06-28T08:08:47Z,42.805,6.029,13.3007,4.60038,2470.684,2022-6-28T10:10:32Z
2022-06-28T08:11:50Z,42.805,6.029,13.3010,4.60037,2470.646,2022-6-28T10:13:35Z
2022-06-28T08:14:53Z,42.805,6.029,13.3004,4.60039,2470.624,2022-6-28T10:16:38Z
2022-06-28T08:17:57Z,42.805,6.029,13.3004,4.60043,2470.624,2022-6-28T10:19:41Z
2022-06-28T08:21:00Z,42.805,6.029,13.3006,4.60038,2470.637,2022-6-28T10:22:44Z
2022-06-28T08:24:03Z,42.805,6.029,13.3006,4.60039,2470.646,2022-6-28T10:25:47Z
2022-06-28T08:27:06Z,42.805,6.029,13.3008,4.60045,2470.614,2022-6-28T10:28:51Z
2022-06-28T08:30:09Z,42.805,6.029,13.3008,4.60039,2470.661,2022-6-28T10:31:54Z
2022-06-28T08:33:12Z,42.805,6.029,13.3011,4.60039,2470.624,2022-6-28T10:34:57Z
2022-06-28T08:36:15Z,42.805,6.029,13.3005,4.60042,2470.637,2022-6-28T10:38:00Z
2022-06-28T08:39:18Z,42.805,6.029,13.3005,4.60040,2470.624,2022-6-28T10:41:03Z
2022-06-28T08:42:22Z,42.805,6.029,13.3009,4.60044,2470.624,2022-6-28T10:44:06Z
2022-06-28T08:45:25Z,42.805,6.029,13.3004,4.60043,2470.624,2022-6-28T10:47:09Z
2022-06-28T08:48:28Z,42.805,6.029,13.3006,4.60041,2470.637,2022-6-28T10:50:12Z
2022-06-28T08:51:31Z,42.805,6.029,13.3004,4.60043,2470.586,2022-6-28T10:53:16Z
2022-06-28T08:54:34Z,42.805,6.029,13.3007,4.60043,2470.614,2022-6-28T10:56:19Z
2022-06-28T08:57:37Z,42.805,6.029,13.3005,4.60037,2470.624,2022-6-28T10:59:22Z
2022-06-28T09:00:40Z,42.805,6.029,13.3004,4.60039,2470.637,2022-6-28T11:02:25Z
2022-06-28T09:03:43Z,42.805,6.029,13.3006,4.60037,2470.614,2022-6-28T11:05:28Z
2022-06-28T09:06:47Z,42.805,6.029,13.3006,4.60036,2470.624,2022-6-28T11:08:31Z
2022-06-28T09:09:50Z,42.805,6.029,13.3008,4.60042,2470.614,2022-6-28T11:11:34Z
2022-06-28T09:12:53Z,42.805,6.029,13.3007,4.60042,2470.6,2022-6-28T11:14:37Z
2022-06-28T09:15:56Z,42.805,6.029,13.3004,4.60037,2470.6,2022-6-28T11:17:41Z
2022-06-28T09:18:59Z,42.805,6.029,13.3005,4.60042,2470.6,2022-6-28T11:20:44Z
2022-06-28T09:22:02Z,42.805,6.029,13.3006,4.60038,2470.624,2022-6-28T11:23:47Z
2022-06-28T09:25:05Z,42.805,6.029,13.3007,4.60039,2470.6,2022-6-28T11:26:50Z
2022-06-28T09:28:08Z,42.805,6.029,13.3001,4.60040,2470.614,2022-6-28T11:29:53Z
2022-06-28T09:31:12Z,42.805,6.029,13.3009,4.60039,2470.6,2022-6-28T11:32:56Z
2022-06-28T09:34:15Z,42.805,6.029,13.3008,4.60039,2470.577,2022-6-28T11:35:59Z
2022-06-28T09:37:18Z,42.805,6.029,13.3005,4.60039,2470.6,2022-6-28T11:39:02Z
2022-06-28T09:40:21Z,42.805,6.029,13.3006,4.60040,2470.6,2022-6-28T11:42:06Z
2022-06-28T09:43:24Z,42.805,6.029,13.3004,4.60040,2470.6,2022-6-28T11:45:09Z
2022-06-28T09:46:27Z,42.805,6.029,13.3008,4.60044,2470.6,2022-6-28T11:48:12Z
2022-06-28T09:49:30Z,42.805,6.029,13.3004,4.60042,2470.624,2022-6-28T11:51:15Z
2022-06-28T09:52:33Z,42.805,6.029,13.3006,4.60042,2470.6,2022-6-28T11:54:18Z
2022-06-28T09:55:37Z,42.805,6.029,13.3008,4.60040,2470.577,2022-6-28T11:57:21Z
2022-06-28T09:58:40Z,42.805,6.029,13.3009,4.60045,2470.577,2022-6-28T12:00:24Z
2022-06-28T10:01:43Z,42.805,6.029,13.3010,4.60042,2470.6,2022-6-28T12:03:27Z
2022-06-28T10:04:46Z,42.805,6.029,13.3008,4.60039,2470.577,2022-6-28T12:06:31Z
2022-06-28T10:07:49Z,42.805,6.029,13.3009,4.60036,2470.567,2022-6-28T12:09:34Z
2022-06-28T10:10:52Z,42.805,6.029,13.3006,4.60037,2470.553,2022-6-28T12:12:37Z
2022-06-28T10:13:55Z,42.805,6.029,13.3003,4.60038,2470.553,2022-6-28T12:15:40Z
2022-06-28T10:16:58Z,42.805,6.029,13.3003,4.60036,2470.553,2022-6-28T12:18:43Z
2022-06-28T10:20:02Z,42.805,6.029,13.3009,4.60041,2470.591,2022-6-28T12:21:46Z
2022-06-28T10:23:05Z,42.805,6.029,13.3009,4.60039,2470.553,2022-6-28T12:24:49Z
2022-06-28T10:26:08Z,42.805,6.029,13.3008,4.60040,2470.591,2022-6-28T12:27:52Z
2022-06-28T10:29:11Z,42.805,6.029,13.3007,4.60037,2470.577,2022-6-28T12:30:56Z
2022-06-28T10:32:14Z,42.805,6.029,13.3006,4.60036,2470.567,2022-6-28T12:33:59Z
2022-06-28T10:35:17Z,42.805,6.029,13.3007,4.60039,2470.553,2022-6-28T12:37:02Z
2022-06-28T10:38:20Z,42.805,6.029,13.3002,4.60036,2470.577,2022-6-28T12:40:05Z
2022-06-28T10:41:23Z,42.805,6.029,13.3006,4.60038,2470.553,2022-6-28T12:43:08Z
2022-06-28T10:44:27Z,42.805,6.029,13.3004,4.60037,2470.53,2022-6-28T12:46:11Z
2022-06-28T10:47:30Z,42.805,6.029,13.3005,4.60036,2470.577,2022-6-28T12:49:14Z
2022-06-28T10:50:33Z,42.805,6.029,13.3006,4.60036,2470.553,2022-6-28T12:52:17Z
2022-06-28T10:53:36Z,42.805,6.029,13.3008,4.60038,2470.577,2022-6-28T12:55:21Z
2022-06-28T10:56:39Z,42.805,6.029,13.3004,4.60038,2470.553,2022-6-28T12:58:24Z
2022-06-28T10:59:42Z,42.805,6.029,13.3004,4.60035,2470.544,2022-6-28T13:01:27Z
2022-06-28T11:02:45Z,42.805,6.029,13.3001,4.60038,2470.567,2022-6-28T13:04:30Z
2022-06-28T11:05:48Z,42.805,6.029,13.3001,4.60036,2470.544,2022-6-28T13:07:33Z
2022-06-28T11:08:52Z,42.805,6.029,13.3002,4.60039,2470.553,2022-6-28T13:10:36Z
2022-06-28T11:11:55Z,42.805,6.029,13.3007,4.60038,2470.544,2022-6-28T13:13:39Z
2022-06-28T11:14:58Z,42.805,6.029,13.3006,4.60042,2470.53,2022-6-28T13:16:42Z
2022-06-28T11:18:01Z,42.805,6.029,13.3009,4.60038,2470.553,2022-6-28T13:19:46Z
2022-06-28T11:21:04Z,42.805,6.029,13.3005,4.60039,2470.553,2022-6-28T13:22:49Z
2022-06-28T11:24:07Z,42.805,6.029,13.3006,4.60039,2470.553,2022-6-28T13:25:52Z
2022-06-28T11:27:10Z,42.805,6.029,13.3006,4.60038,2470.507,2022-6-28T13:28:55Z
2022-06-28T11:30:13Z,42.805,6.029,13.3007,4.60046,2470.553,2022-6-28T13:31:58Z
2022-06-28T11:33:17Z,42.805,6.029,13.3005,4.60037,2470.52,2022-6-28T13:35:01Z
2022-06-28T11:36:20Z,42.805,6.029,13.3008,4.60045,2470.53,2022-6-28T13:38:04Z
2022-06-28T11:39:23Z,42.805,6.029,13.3005,4.60043,2470.553,2022-6-28T13:41:07Z
2022-06-28T11:42:26Z,42.805,6.029,13.3005,4.60036,2470.53,2022-6-28T13:44:11Z
2022-06-28T11:45:29Z,42.805,6.029,13.3007,4.60037,2470.53,2022-6-28T13:47:14Z
2022-06-28T11:48:32Z,42.805,6.029,13.3007,4.60036,2470.53,2022-6-28T13:50:17Z
2022-06-28T11:51:35Z,42.805,6.029,13.3005,4.60037,2470.497,2022-6-28T13:53:20Z
2022-06-28T11:54:38Z,42.805,6.029,13.3000,4.60039,2470.516,2022-6-28T13:56:23Z
2022-06-28T11:57:42Z,42.805,6.029,13.3006,4.60041,2470.497,2022-6-28T13:59:26Z
2022-06-28T12:00:45Z,42.805,6.029,13.3004,4.60036,2470.507,2022-6-28T14:02:29Z
2022-06-28T12:03:48Z,42.805,6.029,13.3006,4.60037,2470.52,2022-6-28T14:05:32Z
2022-06-28T12:06:51Z,42.805,6.029,13.3007,4.60036,2470.53,2022-6-28T14:08:36Z
2022-06-28T12:09:54Z,42.805,6.029,13.3006,4.60036,2470.507,2022-6-28T14:11:39Z
2022-06-28T12:12:57Z,42.805,6.029,13.3009,4.60037,2470.53,2022-6-28T14:14:42Z
2022-06-28T12:16:00Z,42.805,6.029,13.3005,4.60036,2470.507,2022-6-28T14:17:45Z
2022-06-28T12:19:04Z,42.805,6.029,13.3004,4.60039,2470.507,2022-6-28T14:20:48Z
2022-06-28T12:22:07Z,42.805,6.029,13.3002,4.60037,2470.52,2022-6-28T14:23:51Z
2022-06-28T12:25:10Z,42.805,6.029,13.3007,4.60039,2470.53,2022-6-28T14:26:54Z
2022-06-28T12:28:13Z,42.805,6.029,13.3007,4.60040,2470.544,2022-6-28T14:29:58Z
2022-06-28T12:31:16Z,42.805,6.029,13.3010,4.60036,2470.53,2022-6-28T14:33:01Z
2022-06-28T12:34:19Z,42.805,6.029,13.3006,4.60036,2470.52,2022-6-28T14:36:04Z
2022-06-28T12:37:22Z,42.805,6.029,13.3006,4.60038,2470.483,2022-6-28T14:39:07Z
2022-06-28T12:40:25Z,42.805,6.029,13.3005,4.60036,2470.53,2022-6-28T14:42:10Z
2022-06-28T12:43:28Z,42.805,6.029,13.3003,4.60036,2470.507,2022-6-28T14:45:13Z
2022-06-28T12:46:32Z,42.805,6.029,13.3002,4.60039,2470.53,2022-6-28T14:48:16Z
2022-06-28T12:49:35Z,42.805,6.029,13.3006,4.60038,2470.52,2022-6-28T14:51:19Z
2022-06-28T12:52:38Z,42.805,6.029,13.3004,4.60042,2470.553,2022-6-28T14:54:23Z
2022-06-28T12:55:41Z,42.805,6.029,13.3003,4.60041,2470.493,2022-6-28T14:57:26Z
2022-06-28T12:58:44Z,42.805,6.029,13.3006,4.60036,2470.507,2022-6-28T15:00:29Z
2022-06-28T13:01:47Z,42.805,6.029,13.3008,4.60042,2470.507,2022-6-28T15:03:32Z
2022-06-28T13:04:50Z,42.805,6.029,13.3006,4.60041,2470.52,2022-6-28T15:06:35Z
2022-06-28T13:07:53Z,42.805,6.029,13.3005,4.60036,2470.497,2022-6-28T15:09:38Z
2022-06-28T13:10:57Z,42.805,6.029,13.3004,4.60036,2470.52,2022-6-28T15:12:41Z
2022-06-28T13:14:00Z,42.805,6.029,13.3003,4.60038,2470.507,2022-6-28T15:15:44Z
2022-06-28T13:17:03Z,42.805,6.029,13.3006,4.60037,2470.507,2022-6-28T15:18:48Z
2022-06-28T13:20:06Z,42.805,6.029,13.3006,4.60039,2470.52,2022-6-28T15:21:51Z
2022-06-28T13:23:09Z,42.805,6.029,13.3004,4.60036,2470.544,2022-6-28T15:24:54Z
2022-06-28T13:26:12Z,42.805,6.029,13.3006,4.60037,2470.507,2022-6-28T15:27:57Z
2022-06-28T13:29:15Z,42.805,6.029,13.3009,4.60037,2470.507,2022-6-28T15:31:00Z
2022-06-28T13:32:18Z,42.805,6.029,13.3005,4.60037,2470.497,2022-6-28T15:34:03Z
2022-06-28T13:35:22Z,42.805,6.029,13.3007,4.60038,2470.497,2022-6-28T15:37:06Z
2022-06-28T13:38:25Z,42.805,6.029,13.3006,4.60037,2470.493,2022-6-28T15:40:09Z
2022-06-28T13:41:28Z,42.805,6.029,13.3005,4.60039,2470.53,2022-6-28T15:43:13Z
2022-06-28T13:44:31Z,42.805,6.029,13.3005,4.60038,2470.544,2022-6-28T15:46:16Z
2022-06-28T13:47:34Z,42.805,6.029,13.3007,4.60039,2470.53,2022-6-28T15:49:19Z
2022-06-28T13:50:37Z,42.805,6.029,13.3004,4.60041,2470.53,2022-6-28T15:52:22Z
2022-06-28T13:53:40Z,42.805,6.029,13.3005,4.60037,2470.507,2022-6-28T15:55:25Z
2022-06-28T13:56:44Z,42.805,6.029,13.3004,4.60040,2470.507,2022-6-28T15:58:28Z
2022-06-28T13:59:47Z,42.805,6.029,13.3008,4.60042,2470.507,2022-6-28T16:01:31Z
2022-06-28T14:02:50Z,42.805,6.029,13.3006,4.60038,2470.52,2022-6-28T16:04:34Z
2022-06-28T14:05:53Z,42.805,6.029,13.3003,4.60040,2470.553,2022-6-28T16:07:38Z
2022-06-28T14:08:56Z,42.805,6.029,13.3005,4.60037,2470.567,2022-6-28T16:10:41Z
2022-06-28T14:11:59Z,42.805,6.029,13.3004,4.60038,2470.53,2022-6-28T16:13:44Z
2022-06-28T14:15:02Z,42.805,6.029,13.3005,4.60036,2470.544,2022-6-28T16:16:47Z
2022-06-28T14:18:05Z,42.805,6.029,13.3009,4.60035,2470.53,2022-6-28T16:19:50Z
2022-06-28T14:21:09Z,42.805,6.029,13.3014,4.60037,2470.553,2022-6-28T16:22:53Z
2022-06-28T14:24:12Z,42.805,6.029,13.3008,4.60041,2470.567,2022-6-28T16:25:56Z
2022-06-28T14:27:15Z,42.805,6.029,13.3009,4.60039,2470.539,2022-6-28T16:28:59Z
2022-06-28T14:30:18Z,42.805,6.029,13.3014,4.60036,2470.544,2022-6-28T16:32:03Z
2022-06-28T14:33:21Z,42.805,6.029,13.3011,4.60038,2470.567,2022-6-28T16:35:06Z
2022-06-28T14:36:24Z,42.805,6.029,13.3006,4.60044,2470.553,2022-6-28T16:38:09Z
2022-06-28T14:39:27Z,42.805,6.029,13.3006,4.60037,2470.567,2022-6-28T16:41:12Z
2022-06-28T14:42:30Z,42.805,6.029,13.3009,4.60040,2470.53,2022-6-28T16:44:15Z
2022-06-28T14:45:34Z,42.805,6.029,13.3006,4.60039,2470.53,2022-6-28T16:47:18Z
2022-06-28T14:48:37Z,42.805,6.029,13.3001,4.60038,2470.53,2022-6-28T16:50:21Z
2022-06-28T14:51:40Z,42.805,6.029,13.3004,4.60044,2470.567,2022-6-28T16:53:24Z
2022-06-28T14:54:43Z,42.805,6.029,13.3007,4.60036,2470.53,2022-6-28T16:56:28Z
2022-06-28T14:57:46Z,42.805,6.029,13.3003,4.60039,2470.553,2022-6-28T16:59:31Z
2022-06-28T15:00:49Z,42.805,6.029,13.3007,4.60039,2470.567,2022-6-28T17:02:34Z
2022-06-28T15:03:52Z,42.805,6.029,13.3008,4.60039,2470.544,2022-6-28T17:05:37Z
2022-06-28T15:06:55Z,42.805,6.029,13.3006,4.60039,2470.591,2022-6-28T17:08:40Z
2022-06-28T15:09:59Z,42.805,6.029,13.3010,4.60037,2470.553,2022-6-28T17:11:43Z
2022-06-28T15:13:02Z,42.805,6.029,13.3007,4.60042,2470.567,2022-6-28T17:14:46Z